Header for Extended Forecast Station List Page

Search by: ID | Name | Date | Parm | Value | Avg | % Avg
Sort by: ID | Name | Date | Parm | Value | Avg | % Avg

Enter search or view all records.

Click on id for station plot
#IDNameDateParmValueAvg% Avg
0LYDM8KOOTENAI-LIBBY DAM02-25-2015INFLOW (KAF)3403407683
1LEOI1KOOTENAI-AT LEONIA02-25-2015DISCHARGE (KAF)3352407382
2BFEI1KOOTENAI-AT BONNERS FERRY02-25-2015STAGE (FT)MMM
3FCFM8NF FLATHEAD-NEAR COLUMBIA FALLS02-25-2015DISCHARGE (KAF)1171126493
4WGCM8MF FLATHEAD-NEAR WEST GLACIER02-25-2015DISCHARGE (KAF)1154123693
5HHWM8SF FLATHEAD-HUNGRY HORSE DAM02-25-2015INFLOW (KAF)1544163594
6CFMM8FLATHEAD-AT COLUMBIA FALLS02-25-2015DISCHARGE (KAF)35223447102
7DLGM8CLARK FORK-AT DEER LODGE02-25-2015DISCHARGE (KAF)628474
8DRMM8CLARK FORK-NR DRUMMOND02-25-2015DISCHARGE (KAF)234MM
9RCCM8ROCK CREEK-NEAR CLINTON02-25-2015DISCHARGE (KAF)302205147
10BONM8BLACKFOOT-NEAR BONNER02-25-2015DISCHARGE (KAF)66667399
11ABOM8CLARK FORK-ABOVE MISSOULA02-25-2015DISCHARGE (KAF)12481222102
12BITM8BITTERROOT-NEAR MISSOULA02-25-2015DISCHARGE (KAF)995102497
13BELM8CLARK FORK-BELOW MISSOULA02-25-2015DISCHARGE (KAF)2244227499
14STRM8ST. REGIS-NEAR ST. REGIS02-25-2015DISCHARGE (KAF)20724285
15SRGM8CLARK FORK-AT ST REGIS02-25-2015DISCHARGE (KAF)2907308394
16KERM8FLATHEAD-KERR DAM02-25-2015INFLOW (KAF)43664356100
17NOXM8CLARK FORK-NOXON RAPIDS DAM02-25-2015INFLOW (KAF)7525781996
18CABI1CLARK FORK-CABINET GORGE DAM02-25-2015INFLOW (KAF)83188214101
19PRTI1PRIEST-NEAR PRIEST RIVER02-25-2015DISCHARGE (KAF)737740100
20ALFW1PEND OREILLE-ALBENI FALLS DAM02-25-2015INFLOW (KAF)9476987096
21HOPI1PEND OREILLE-PEND OREILLE LAKE NR HOPE02-25-2015LAKE ELEVATION (FT)MMM
22COEI1COEUR D ALENE-COEUR D ALENE LAKE02-25-2015INFLOW (KAF)1880281867
23SPOW1SPOKANE-AT SPOKANE02-25-2015DISCHARGE (KAF)1831MM
24LLKW1SPOKANE-AT LONGLAKE02-25-2015INFLOW (KAF)2034336760
25SATI1ST MARIES-NEAR SANTA02-25-2015DISCHARGE (KAF)6715045
26SJMI1ST JOE-AT ST MARIES02-25-2015STAGE (FT)MMM
27CIBW1COLUMBIA-AT INTL BOUNDARY02-25-2015DISCHARGE (KAF)23357MM
28LAUW1KETTLE-AT LAURIER02-25-2015DISCHARGE (KAF)17611525115
29GCDW1COLUMBIA-GRAND COULEE DAM02-25-2015INFLOW (KAF)272363245284
30CHJW1COLUMBIA-CHIEF JOSEPH DAM02-25-2015INFLOW (KAF)249792836488
31TONW1OKANOGAN-NEAR TONASKET02-25-2015DISCHARGE (KAF)1150123094
32PATW1METHOW-NEAR PATEROS02-25-2015DISCHARGE (KAF)64069292
33WELW1COLUMBIA-WELLS DAM02-25-2015INFLOW (KAF)267783037988
34CHDW1CHELAN-LAKE CHELAN DAM02-25-2015INFLOW (KAF)769765100
35RRHW1COLUMBIA-ROCKY REACH DAM02-25-2015INFLOW (KAF)274883080989
36ARDW1ENTIAT-NEAR ARDENVOIR02-25-2015DISCHARGE (KAF)158154103
37PESW1WENATCHEE-AT PESHASTIN02-25-2015DISCHARGE (KAF)919116079
38WANW1COLUMBIA-WANAPUM DAM02-25-2015INFLOW (KAF)285153385384
39PRWW1COLUMBIA-PRIEST RAPIDS DAM02-25-2015INFLOW (KAF)283843445982
40KEDW1YAKIMA-KEECHELUS LAKE02-25-2015INFLOW (KAF)7110866
41KADW1KACHESS-KACHESS DAM02-25-2015INFLOW (KAF)6910267
42EASW1YAKIMA-AT EASTON02-25-2015DISCHARGE (KAF)12498127
43CLUW1CLE ELUM-CLE ELUM LAKE02-25-2015INFLOW (KAF)22933269
44TNAW1TEANAWAY-BELOW FORKS02-25-2015DISCHARGE (KAF)7213255
45UMTW1YAKIMA-AT UMTANUM02-25-2015DISCHARGE (KAF)60465293
46BUDW1BUMPING-BUMPING LAKE DAM02-25-2015INFLOW (KAF)7610076
47CLFW1NACHES-NEAR CLIFFDEL02-25-2015DISCHARGE (KAF)24433273
48RILW1TIETON-RIMROCK LAKE NEAR RIMROCK02-25-2015INFLOW (KAF)11816472
49NACW1NACHES-NEAR NACHES02-25-2015DISCHARGE (KAF)36642886
50PARW1YAKIMA-NEAR PARKER02-25-2015DISCHARGE (KAF)48862179
51KIOW1YAKIMA-AT KIONA02-25-2015DISCHARGE (KAF)695100569
52IPDI1HENRYS FORK-ISLAND PARK DAM02-25-2015INFLOW (KAF)14318379
53CHEI1FALL RIVER-NEAR CHESTER02-25-2015DISCHARGE (KAF)310303102
54ANTI1HENRYS FORK-AT ST. ANTHONY02-25-2015DISCHARGE (KAF)54961290
55TEAI1TETON-NEAR ST. ANTHONY02-25-2015DISCHARGE (KAF)327271121
56REXI1HENRYS FORK-AT REXBURG02-25-2015DISCHARGE (KAF)68871796
57JLKW4SNAKE-JACKSON LAKE AT DAM02-25-2015INFLOW (KAF)600589102
58JKSW4SNAKE-NEAR JACKSON02-25-2015DISCHARGE (KAF)11771075109
59ALPW4SNAKE-NEAR ALPINE02-25-2015DISCHARGE (KAF)15661410111
60PLDI1SF SNAKE-PALISADES DAM02-25-2015INFLOW (KAF)23562145110
61HEII1SNAKE-NEAR HEISE02-25-2015DISCHARGE (KAF)23802073115
62RIDI1WILLOW CREEK-RIRIE DAM02-25-2015INFLOW (KAF)5543126
63SIFI1SNAKE-AB EAGLE ROCK NR IDAHO FALLS02-25-2015DISCHARGE (KAF)22902035113
64SHYI1SNAKE-NEAR SHELLEY02-25-2015DISCHARGE (KAF)21192003106
65SNAI1SNAKE-AT BLACKFOOT02-25-2015DISCHARGE (KAF)17941723104
66BFTI1SNAKE-NEAR BLACKFOOT02-25-2015DISCHARGE (KAF)17581694104
67PIHI1PORTNEUF-AT POCATELLO02-25-2015DISCHARGE (KAF)529852
68AFRI1SNAKE-AMERICAN FALLS RESERVOIR02-25-2015INFLOW (KAF)2326236099
69MILI1SNAKE-AT MILNER02-25-2015DISCHARGE (KAF)20861134
70HOTI1BRUNEAU-NEAR HOT SPRINGS02-25-2015DISCHARGE (KAF)10117358
71SWAI1SNAKE-BELOW SWAN FALLS02-25-2015DISCHARGE (KAF)1806265468
72HWRI1BIG LOST-AT HOWELL RANCH NEAR CHILLY02-25-2015DISCHARGE (KAF)9011379
73MACI1BIG LOST-MACKAY RESERVOIR NEAR MACKAY02-25-2015INFLOW (KAF)8011569
74HALI1BIG WOOD-AT HAILEY02-25-2015DISCHARGE (KAF)187179105
75MAGI1BIG WOOD-MAGIC DAM02-25-2015INFLOW (KAF)223223100
76LWRI1LITTLE WOOD-LITTLE WOOD DAM02-25-2015INFLOW (KAF)527173
77OWYO3OWYHEE-BELOW OWYHEE DAM02-25-2015INFLOW (KAF)18135850
78ARAI1SF BOISE-ANDERSON RANCH DAM02-25-2015INFLOW (KAF)44646297
79LUCI1BOISE-LUCKY PEAK DAM02-25-2015INFLOW (KAF)1007MM
80BIGI1BOISE-AT GLENWOOD BRIDGE02-25-2015DISCHARGE (KAF)568367155
81PARI1BOISE-NEAR PARMA02-25-2015DISCHARGE (KAF)582423138
82WRMO3MALHEUR-WARM SPRINGS DAM02-25-2015INFLOW (KAF)396759
83BERO3MALHEUR-AGENCY VALLEY DAM02-25-2015INFLOW (KAF)335165
84BULO3BULLY CREEK-BULLY CREEK DAM02-25-2015INFLOW (KAF)128148
85VALO3MALHEUR-NEAR VALE02-25-2015DISCHARGE (KAF)6609
86CSDI1NF PAYETTE-CASCADE DAM02-25-2015INFLOW (KAF)37047179
87DEDI1DEADWOOD-NEAR LOWMAN02-25-2015INFLOW (KAF)10411491
88EMMI1PAYETTE-NEAR EMMETT02-25-2015DISCHARGE (KAF)915116679
89WSRI1WEISER-NEAR WEISER02-25-2015DISCHARGE (KAF)30643470
90WEII1SNAKE-AT WEISER02-25-2015DISCHARGE (KAF)3793534771
91BRNI1SNAKE-BROWNLEE DAM02-25-2015INFLOW (KAF)4281579374
92WHBI1SALMON-AT WHITEBIRD02-25-2015DISCHARGE (KAF)4286478890
93TRYO3GRANDE RONDE-TROY02-25-2015DISCHARGE (KAF)779125762
94ANAW1SNAKE-NEAR ANATONE02-25-2015DISCHARGE (KAF)93781286273
95ORFI1CLEARWATER-AT OROFINO02-25-2015DISCHARGE (KAF)4035428494
96DWRI1NF CLEARWATER-DWORSHAK DAM02-25-2015INFLOW (KAF)1987262976
97SPDI1CLEARWATER-AT SPALDING02-25-2015DISCHARGE (KAF)5663662585
98LGDW1SNAKE-LOWER GRANITE DAM02-25-2015INFLOW (KAF)150411948677
99LGSW1SNAKE-LITTLE GOOSE DAM02-25-2015INFLOW (KAF)150441951777
100LMNW1SNAKE-LOWER MONUMENTAL DAM02-25-2015INFLOW (KAF)151181971377
101IHDW1SNAKE-ICE HARBOR DAM02-25-2015INFLOW (KAF)151291958377
102TCHW1WALLA WALLA-NEAR TOUCHET02-25-2015DISCHARGE (KAF)13217775
103MCDW1COLUMBIA-MCNARY DAM02-25-2015INFLOW (KAF)445965610179
104GIBO3UMATILLA-NEAR GIBBON02-25-2015DISCHARGE (KAF)678183
105PDTO3UMATILLA-AT PENDLETON02-25-2015DISCHARGE (KAF)13217974
106MYKO3MCKAY CREEK-NEAR PILOT ROCK02-25-2015DISCHARGE (KAF)4233125
107UMAO3UMATILLA-NEAR UMATILLA02-25-2015DISCHARGE (KAF)10413677
108MONO3NF JOHN DAY-AT MONUMENT02-25-2015DISCHARGE (KAF)44462172
109SERO3JOHN DAY-AT SERVICE CK02-25-2015DISCHARGE (KAF)59489267
110JDAO3COLUMBIA-JOHN DAY DAM02-25-2015INFLOW (KAF)464665861779
111MODO3DESCHUTES-AT MOODY NR BIGGS02-25-2015DISCHARGE (KAF)1352150690
112TDAO3COLUMBIA-THE DALLES DAM02-25-2015INFLOW (KAF)468165522685
113PITW1KLICKITAT-NEAR PITT02-25-2015DISCHARGE (KAF)37852572
114HODO3HOOD-NEAR TUCKER BRIDGE02-25-2015DISCHARGE (KAF)21226480
115UNDW1WHITE SALMON-NEAR UNDERWOOD02-25-2015DISCHARGE (KAF)25035271
116BONO3COLUMBIA-BONNEVILLE DAM02-25-2015INFLOW (KAF)47667MM